,,Stat5,,Stat1,,Stat2,,Stat3,,Stat4,,Wind1,,Wind1,
time,status,PA1M_AVG,status,PR1M_SUM,status,RH1M_AVG,status,SR1M_AVG,status,TA1M_AVG,status,W1dAve1m,status,W1sAve1m,
2000-12-13, 00:00:01,VALID,918.043,VALID,0,VALID,99.4128,VALID,-0.0339617,VALID,19.7745,VALID,93,VALID,0.763238,
2000-12-13, 00:01:00,VALID,918.02,VALID,0,VALID,99.414,VALID,-0.0339617,VALID,19.7815,VALID,98,VALID,1.01626,
2000-12-13, 00:02:00,VALID,918.005,VALID,0,VALID,99.4128,VALID,0,VALID,19.7872,VALID,81,VALID,0.915707,
2000-12-13, 00:03:00,VALID,917.989,VALID,0,VALID,99.395,VALID,0,VALID,19.7551,VALID,84,VALID,1.16324,
2000-12-13, 00:04:00,VALID,917.96,VALID,0,VALID,99.4013,VALID,0.0339617,VALID,19.7449,VALID,84,VALID,1.06738,
2000-12-13, 00:05:00,VALID,917.946,VALID,0,VALID,99.3899,VALID,0.118866,VALID,19.7308,VALID,46,VALID,0.814453,
2000-12-13, 00:06:00,VALID,917.942,VALID,0,VALID,99.3835,VALID,0.135847,VALID,19.7082,VALID,81,VALID,0.177998,
2000-12-13, 00:07:00,VALID,917.928,VALID,0,VALID,99.3924,VALID,0.101885,VALID,19.7435,VALID,96,VALID,0,
2000-12-13, 00:08:00,VALID,917.916,VALID,0,VALID,99.3899,VALID,0.118866,VALID,19.7536,VALID,93,VALID,0,
2000-12-13, 00:09:00,VALID,917.9,VALID,0,VALID,99.3937,VALID,0.118866,VALID,19.7631,VALID,86,VALID,0,
2000-12-13, 00:10:00,VALID,917.897,VALID,0,VALID,99.3886,VALID,0.0849042,VALID,19.7536,VALID,85,VALID,0,
2000-12-13, 00:11:00,VALID,917.883,VALID,0,VALID,99.395,VALID,0.101885,VALID,19.7437,VALID,100,VALID,0,
2000-12-13, 00:12:00,VALID,917.892,VALID,0,VALID,99.395,VALID,0.0849042,VALID,19.7407,VALID,90,VALID,0,
2000-12-13, 00:13:00,VALID,917.868,VALID,0,VALID,99.395,VALID,0.118866,VALID,19.7181,VALID,101,VALID,0.387747,
2000-12-13, 00:14:00,VALID,917.861,VALID,0,VALID,99.395,VALID,0.152827,VALID,19.7203,VALID,90,VALID,0.526442,
2000-12-13, 00:15:00,VALID,917.865,VALID,0,VALID,99.3848,VALID,0.101885,VALID,19.7276,VALID,86,VALID,0.175676,
2000-12-13, 00:16:00,VALID,917.857,VALID,0,VALID,99.4013,VALID,0.101885,VALID,19.7112,VALID,86,VALID,0.1875,
2000-12-13, 00:17:00,VALID,917.849,VALID,0,VALID,99.3988,VALID,0.101885,VALID,19.7276,VALID,86,VALID,0.0179687,
2000-12-13, 00:18:00,VALID,917.846,VALID,0,VALID,99.409,VALID,0.0849042,VALID,19.7303,VALID,87,VALID,0,
2000-12-13, 00:19:00,VALID,917.838,VALID,0,VALID,99.4077,VALID,0.0509425,VALID,19.7313,VALID,86,VALID,0,
2000-12-13, 00:20:00,VALID,917.825,VALID,0,VALID,99.3721,VALID,0.0339617,VALID,19.6577,VALID,85,VALID,0.928454,
2000-12-13, 00:21:00,VALID,917.821,VALID,0,VALID,99.3695,VALID,0,VALID,19.658,VALID,82,VALID,0.2,
2000-12-13, 00:22:00,VALID,917.823,VALID,0,VALID,99.3848,VALID,0,VALID,19.6677,VALID,89,VALID,0.0745355,
2000-12-13, 00:23:00,VALID,917.819,VALID,0,VALID,99.395,VALID,0.0169808,VALID,19.6706,VALID,81,VALID,0.0853207,
2000-12-13, 00:24:00,VALID,917.792,VALID,0,VALID,99.4026,VALID,0.0169808,VALID,19.6967,VALID,101,VALID,0,
2000-12-13, 00:25:00,VALID,917.805,VALID,0,VALID,99.3937,VALID,-0.0169808,VALID,19.6614,VALID,150,VALID,0,
2000-12-13, 00:26:00,VALID,917.802,VALID,0,VALID,99.4001,VALID,0,VALID,19.6649,VALID,277,VALID,0,
2000-12-13, 00:27:00,VALID,917.804,VALID,0,VALID,99.4013,VALID,0,VALID,19.6647,VALID,274,VALID,0,
2000-12-13, 00:28:00,VALID,917.808,VALID,0,VALID,99.3962,VALID,-0.0169808,VALID,19.6485,VALID,258,VALID,0.187911,
2000-12-13, 00:29:00,VALID,917.8,VALID,0,VALID,99.3988,VALID,0,VALID,19.6453,VALID,256,VALID,0.0390625,
2000-12-13, 00:30:00,VALID,917.804,VALID,0,VALID,99.4077,VALID,0,VALID,19.6324,VALID,258,VALID,0,
2000-12-13, 00:31:00,VALID,917.794,VALID,0,VALID,99.4102,VALID,0,VALID,19.6291,VALID,259,VALID,0,
2000-12-13, 00:32:00,VALID,917.79,VALID,0,VALID,99.4204,VALID,-0.0169808,VALID,19.6358,VALID,259,VALID,0,
2000-12-13, 00:33:00,VALID,917.769,VALID,0,VALID,99.4268,VALID,0,VALID,19.6381,VALID,259,VALID,0,
2000-12-13, 00:34:00,VALID,917.761,VALID,0,VALID,99.4331,VALID,0,VALID,19.6577,VALID,166,VALID,0,
2000-12-13, 00:35:00,VALID,917.763,VALID,0,VALID,99.428,VALID,0,VALID,19.6577,VALID,90,VALID,0,
2000-12-13, 00:36:00,VALID,917.752,VALID,0,VALID,99.4217,VALID,0,VALID,19.6545,VALID,94,VALID,0.713281,
2000-12-13, 00:37:00,VALID,917.74,VALID,0,VALID,99.4051,VALID,0.0169808,VALID,19.6222,VALID,91,VALID,1.55674,
2000-12-13, 00:38:00,VALID,917.72,VALID,0,VALID,99.4115,VALID,0,VALID,19.6063,VALID,95,VALID,0.885216,
2000-12-13, 00:39:00,VALID,917.733,VALID,0,VALID,99.4153,VALID,0,VALID,19.6224,VALID,95,VALID,0.0838816,
2000-12-13, 00:40:00,VALID,917.742,VALID,0,VALID,99.4191,VALID,0,VALID,19.6199,VALID,99,VALID,0.0916016,
2000-12-13, 00:41:00,VALID,917.743,VALID,0,VALID,99.4001,VALID,0.0169808,VALID,19.5996,VALID,104,VALID,1.225,
2000-12-13, 00:42:00,VALID,917.706,VALID,0,VALID,99.4115,VALID,0,VALID,19.6162,VALID,85,VALID,1.3762,
2000-12-13, 00:43:00,VALID,917.713,VALID,0,VALID,99.4179,VALID,0.0169808,VALID,19.6122,VALID,69,VALID,0.657484,
2000-12-13, 00:44:00,VALID,917.707,VALID,0,VALID,99.414,VALID,0.0339617,VALID,19.6254,VALID,99,VALID,0.344952,
2000-12-13, 00:45:00,VALID,917.706,VALID,0,VALID,99.4179,VALID,0.0339617,VALID,19.6122,VALID,96,VALID,0.110777,
2000-12-13, 00:46:00,VALID,917.706,VALID,0,VALID,99.4077,VALID,0.0169808,VALID,19.6257,VALID,96,VALID,0,
2000-12-13, 00:47:00,VALID,917.699,VALID,0,VALID,99.4217,VALID,0,VALID,19.6194,VALID,96,VALID,0,
2000-12-13, 00:48:00,VALID,917.698,VALID,0,VALID,99.4255,VALID,0,VALID,19.616,VALID,97,VALID,0.522569,
2000-12-13, 00:49:00,VALID,917.673,VALID,0,VALID,99.4255,VALID,0.0339617,VALID,19.6423,VALID,74,VALID,1.1799,
2000-12-13, 00:50:00,VALID,917.667,VALID,0,VALID,99.4179,VALID,0,VALID,19.6391,VALID,79,VALID,0.292067,
2000-12-13, 00:51:00,VALID,917.675,VALID,0,VALID,99.4077,VALID,0,VALID,19.6162,VALID,98,VALID,0.456926,
2000-12-13, 00:52:00,VALID,917.663,VALID,0,VALID,99.4051,VALID,0,VALID,19.5837,VALID,356,VALID,0.999199,
2000-12-13, 00:53:00,VALID,917.663,VALID,0,VALID,99.4115,VALID,0,VALID,19.6192,VALID,108,VALID,0.628906,
2000-12-13, 00:54:00,VALID,917.671,VALID,0,VALID,99.4179,VALID,0,VALID,19.645,VALID,97,VALID,0.366235,
2000-12-13, 00:55:00,VALID,917.675,VALID,0,VALID,99.4013,VALID,0,VALID,19.6453,VALID,87,VALID,0.35016,
2000-12-13, 00:56:00,VALID,917.675,VALID,0,VALID,99.3988,VALID,0.0339617,VALID,19.6545,VALID,76,VALID,0.360431,
2000-12-13, 00:57:00,VALID,917.663,VALID,0,VALID,99.4051,VALID,0,VALID,19.6575,VALID,95,VALID,0.320313,
2000-12-13, 00:58:00,VALID,917.662,VALID,0,VALID,99.3962,VALID,0,VALID,19.6356,VALID,54,VALID,0.686298,
2000-12-13, 00:59:00,VALID,917.612,VALID,0,VALID,99.3975,VALID,0,VALID,19.6383,VALID,94,VALID,1.05194,
2000-12-13, 01:00:00,VALID,917.598,VALID,0,VALID,99.3912,VALID,0.0339617,VALID,19.6674,VALID,89,VALID,1.102,
2000-12-13, 01:01:00,VALID,917.566,VALID,0,VALID,99.3962,VALID,0.0169808,VALID,19.6518,VALID,101,VALID,0.692508,
2000-12-13, 01:02:00,VALID,917.551,VALID,0,VALID,99.3988,VALID,0,VALID,19.6647,VALID,103,VALID,0.848805,
2000-12-13, 01:03:00,VALID,917.539,VALID,0,VALID,99.4051,VALID,-0.0169808,VALID,19.6838,VALID,99,VALID,1.06758,
2000-12-13, 01:04:00,VALID,917.517,VALID,0,VALID,99.4013,VALID,0,VALID,19.6878,VALID,97,VALID,1.49322,
2000-12-13, 01:05:00,VALID,917.509,VALID,0,VALID,99.4166,VALID,0,VALID,19.6972,VALID,97,VALID,1.24479,
2000-12-13, 01:06:00,VALID,917.486,VALID,0,VALID,99.4077,VALID,-0.0169808,VALID,19.6878,VALID,101,VALID,1.12418,
2000-12-13, 01:07:00,VALID,917.478,VALID,0,VALID,99.4102,VALID,0,VALID,19.6905,VALID,100,VALID,1.16211,
2000-12-13, 01:08:00,VALID,917.464,VALID,0,VALID,99.4064,VALID,-0.0169808,VALID,19.697,VALID,98,VALID,1.25021,
2000-12-13, 01:09:00,VALID,917.458,VALID,0,VALID,99.4013,VALID,0,VALID,19.6741,VALID,100,VALID,1.35259,
2000-12-13, 01:10:00,VALID,917.439,VALID,0,VALID,99.4051,VALID,0.0169808,VALID,19.6739,VALID,95,VALID,1.04941,
2000-12-13, 01:11:00,VALID,917.445,VALID,0,VALID,99.3924,VALID,-0.0339617,VALID,19.6647,VALID,90,VALID,0.289864,
2000-12-13, 01:12:00,VALID,917.447,VALID,0,VALID,99.3975,VALID,0,VALID,19.652,VALID,313,VALID,0.35114,
2000-12-13, 01:13:00,VALID,917.46,VALID,0,VALID,99.3861,VALID,-0.0169808,VALID,19.6356,VALID,261,VALID,0.850477,
2000-12-13, 01:14:00,VALID,917.457,VALID,0,VALID,99.3797,VALID,-0.0169808,VALID,19.6063,VALID,277,VALID,1.12019,
2000-12-13, 01:15:00,VALID,917.449,VALID,0,VALID,99.3848,VALID,0,VALID,19.6005,VALID,273,VALID,0.798564,
2000-12-13, 01:16:00,VALID,917.463,VALID,0,VALID,99.3886,VALID,0,VALID,19.5871,VALID,274,VALID,0.466427,
2000-12-13, 01:17:00,VALID,917.456,VALID,0,VALID,99.3886,VALID,0,VALID,19.5941,VALID,280,VALID,0.213224,
2000-12-13, 01:18:00,VALID,917.438,VALID,0,VALID,99.3988,VALID,0,VALID,19.5837,VALID,276,VALID,0.00485642,
2000-12-13, 01:19:00,VALID,917.419,VALID,0,VALID,99.4077,VALID,-0.0509425,VALID,19.601,VALID,276,VALID,0.0166016,
2000-12-13, 01:20:00,VALID,917.396,VALID,0,VALID,99.4191,VALID,-0.101885,VALID,19.5914,VALID,280,VALID,0.0264423,
2000-12-13, 01:21:00,VALID,917.365,VALID,0,VALID,99.414,VALID,-0.101885,VALID,19.6184,VALID,280,VALID,0,
2000-12-13, 01:22:00,VALID,917.357,VALID,0,VALID,99.4382,VALID,-0.118866,VALID,19.6378,VALID,278,VALID,0.0230263,
2000-12-13, 01:23:00,VALID,917.339,VALID,0,VALID,99.4369,VALID,-0.169808,VALID,19.6503,VALID,270,VALID,0.0884046,
2000-12-13, 01:24:00,VALID,917.313,VALID,0,VALID,99.4331,VALID,-0.101885,VALID,19.6565,VALID,209,VALID,0.095228,
2000-12-13, 01:25:00,VALID,917.279,VALID,0,VALID,99.4357,VALID,-0.135847,VALID,19.6562,VALID,181,VALID,0.150977,
2000-12-13, 01:26:00,VALID,917.261,VALID,0,VALID,99.4306,VALID,-0.118866,VALID,19.6597,VALID,156,VALID,0.355686,
2000-12-13, 01:27:00,VALID,917.237,VALID,0,VALID,99.4306,VALID,-0.152827,VALID,19.6562,VALID,124,VALID,0.570524,
2000-12-13, 01:28:00,VALID,917.224,VALID,0,VALID,99.4268,VALID,-0.135847,VALID,19.6632,VALID,123,VALID,0.370683,
2000-12-13, 01:29:00,VALID,917.246,VALID,0,VALID,99.4255,VALID,-0.135847,VALID,19.6729,VALID,123,VALID,0.0061553,
2000-12-13, 01:30:00,VALID,917.229,VALID,0,VALID,99.4001,VALID,-0.101885,VALID,19.6378,VALID,117,VALID,0.943668,
2000-12-13, 01:31:00,VALID,917.193,VALID,0,VALID,99.4001,VALID,-0.118866,VALID,19.608,VALID,109,VALID,1.68125,
2000-12-13, 01:32:00,VALID,917.189,VALID,0,VALID,99.3988,VALID,-0.101885,VALID,19.5918,VALID,121,VALID,1.36863,
2000-12-13, 01:33:00,VALID,917.165,VALID,0,VALID,99.3975,VALID,-0.118866,VALID,19.5983,VALID,40,VALID,1.10958,
2000-12-13, 01:34:00,VALID,917.186,VALID,0,VALID,99.3988,VALID,-0.0509425,VALID,19.5754,VALID,35,VALID,0.91653,
2000-12-13, 01:35:00,VALID,917.175,VALID,0,VALID,99.3886,VALID,-0.0509425,VALID,19.565,VALID,69,VALID,0.85597,
2000-12-13, 01:36:00,VALID,917.166,VALID,0,VALID,99.3975,VALID,-0.0339617,VALID,19.5749,VALID,50,VALID,0.858108,
2000-12-13, 01:37:00,VALID,917.158,VALID,0,VALID,99.4077,VALID,0,VALID,19.5645,VALID,52,VALID,0.52426,
2000-12-13, 01:38:00,VALID,917.124,VALID,0,VALID,99.4128,VALID,-0.0339617,VALID,19.5747,VALID,94,VALID,1.02227,
2000-12-13, 01:39:00,VALID,917.109,VALID,0,VALID,99.4217,VALID,-0.0169808,VALID,19.5881,VALID,92,VALID,0.794054,
2000-12-13, 01:40:00,VALID,917.094,VALID,0,VALID,99.4191,VALID,0,VALID,19.6204,VALID,99,VALID,0.47614,
2000-12-13, 01:41:00,VALID,917.089,VALID,0,VALID,99.4204,VALID,0,VALID,19.6063,VALID,106,VALID,0,
2000-12-13, 01:42:00,VALID,917.059,VALID,0,VALID,99.4153,VALID,-0.0339617,VALID,19.6003,VALID,76,VALID,0.367634,
2000-12-13, 01:43:00,VALID,917.057,VALID,0,VALID,99.4217,VALID,-0.0169808,VALID,19.5968,VALID,82,VALID,1.12394,
2000-12-13, 01:44:00,VALID,917.044,VALID,0,VALID,99.4153,VALID,0,VALID,19.5936,VALID,92,VALID,1.12726,
2000-12-13, 01:45:00,VALID,917.017,VALID,0,VALID,99.4255,VALID,0.0169808,VALID,19.6227,VALID,99,VALID,1.04732,
2000-12-13, 01:46:00,VALID,916.998,VALID,0,VALID,99.4255,VALID,0,VALID,19.6289,VALID,99,VALID,0.89363,
2000-12-13, 01:47:00,VALID,916.992,VALID,0,VALID,99.4204,VALID,0,VALID,19.6418,VALID,104,VALID,0.21875,
2000-12-13, 01:48:00,VALID,917.01,VALID,0,VALID,99.4217,VALID,0,VALID,19.6485,VALID,292,VALID,0,
2000-12-13, 01:49:00,VALID,916.998,VALID,0,VALID,99.4051,VALID,0,VALID,19.6194,VALID,225,VALID,0.0931332,
2000-12-13, 01:50:00,VALID,916.985,VALID,0,VALID,99.3962,VALID,-0.0169808,VALID,19.5968,VALID,104,VALID,0.822002,
2000-12-13, 01:51:00,VALID,916.984,VALID,0,VALID,99.4001,VALID,-0.0169808,VALID,19.6132,VALID,98,VALID,0.702539,
2000-12-13, 01:52:00,VALID,916.982,VALID,0,VALID,99.3988,VALID,0,VALID,19.6192,VALID,84,VALID,0.469952,
2000-12-13, 01:53:00,VALID,916.995,VALID,0,VALID,99.4179,VALID,0,VALID,19.6353,VALID,101,VALID,0.651242,
2000-12-13, 01:54:00,VALID,917.003,VALID,0,VALID,99.4077,VALID,0,VALID,19.6547,VALID,99,VALID,0.190878,
2000-12-13, 01:55:00,VALID,917.006,VALID,0,VALID,99.4001,VALID,0,VALID,19.6321,VALID,114,VALID,0.203325,
2000-12-13, 01:56:00,VALID,917.003,VALID,0,VALID,99.4039,VALID,0,VALID,19.6321,VALID,147,VALID,0.0638787,
2000-12-13, 01:57:00,VALID,917.009,VALID,0,VALID,99.4102,VALID,0.0339617,VALID,19.6448,VALID,94,VALID,0.391406,
2000-12-13, 01:58:00,VALID,916.985,VALID,0,VALID,99.3924,VALID,0.0339617,VALID,19.6388,VALID,99,VALID,0.753289,
2000-12-13, 01:59:00,VALID,916.996,VALID,0,VALID,99.3632,VALID,0,VALID,19.6065,VALID,91,VALID,0.491987,
2000-12-13, 02:00:00,VALID,916.985,VALID,0,VALID,99.3734,VALID,0.0169808,VALID,19.6063,VALID,101,VALID,0.292146,
2000-12-13, 02:01:00,VALID,916.962,VALID,0,VALID,99.3492,VALID,0.0169808,VALID,19.5804,VALID,141,VALID,0.520898,
2000-12-13, 02:02:00,VALID,916.96,VALID,0,VALID,99.3784,VALID,-0.0169808,VALID,19.6135,VALID,64,VALID,0.483789,
2000-12-13, 02:03:01,VALID,916.959,VALID,0,VALID,99.3556,VALID,-0.0169808,VALID,19.6065,VALID,101,VALID,1.02885,
2000-12-13, 02:04:00,VALID,916.94,VALID,0,VALID,99.3619,VALID,0.0169808,VALID,19.613,VALID,90,VALID,0.870683,
2000-12-13, 02:05:00,VALID,916.938,VALID,0,VALID,99.3657,VALID,0.0169808,VALID,19.6192,VALID,16,VALID,0.352364,
2000-12-13, 02:06:00,VALID,916.924,VALID,0,VALID,99.3594,VALID,0,VALID,19.6296,VALID,38,VALID,0.144431,
2000-12-13, 02:07:00,VALID,916.913,VALID,0,VALID,99.3632,VALID,0,VALID,19.6197,VALID,141,VALID,0.441723,
2000-12-13, 02:08:00,VALID,916.87,VALID,0,VALID,99.3619,VALID,0,VALID,19.61,VALID,99,VALID,0.692508,
2000-12-13, 02:09:00,VALID,916.859,VALID,0,VALID,99.3657,VALID,0,VALID,19.6224,VALID,138,VALID,0.357205,
2000-12-13, 02:10:00,VALID,916.84,VALID,0,VALID,99.3632,VALID,0.0339617,VALID,19.6194,VALID,105,VALID,0.6875,
2000-12-13, 02:11:00,VALID,916.812,VALID,0,VALID,99.3784,VALID,0.0339617,VALID,19.6157,VALID,91,VALID,0.498397,
2000-12-13, 02:12:00,VALID,916.807,VALID,0,VALID,99.3873,VALID,0.0169808,VALID,19.6289,VALID,102,VALID,0.893159,
2000-12-13, 02:13:00,VALID,916.789,VALID,0,VALID,99.3899,VALID,0.0339617,VALID,19.6324,VALID,93,VALID,0.937901,
2000-12-13, 02:14:00,VALID,916.765,VALID,0,VALID,99.3962,VALID,0.0169808,VALID,19.6445,VALID,94,VALID,0.318462,
2000-12-13, 02:15:01,VALID,916.758,VALID,0,VALID,99.3861,VALID,0.0509425,VALID,19.6351,VALID,92,VALID,0.0342988,
2000-12-13, 02:16:00,VALID,916.74,VALID,0,VALID,99.3848,VALID,0.0339617,VALID,19.6189,VALID,92,VALID,0,
2000-12-13, 02:17:00,VALID,916.729,VALID,0,VALID,99.3861,VALID,0.0169808,VALID,19.6063,VALID,192,VALID,0,
2000-12-13, 02:18:00,VALID,916.739,VALID,0,VALID,99.3759,VALID,0.0339617,VALID,19.5996,VALID,249,VALID,0,
2000-12-13, 02:19:00,VALID,916.716,VALID,0,VALID,99.3823,VALID,0.0339617,VALID,19.5896,VALID,237,VALID,0,
2000-12-13, 02:20:00,VALID,916.707,VALID,0,VALID,99.3721,VALID,0,VALID,19.5901,VALID,233,VALID,0,
2000-12-13, 02:21:00,VALID,916.7,VALID,0,VALID,99.3632,VALID,0,VALID,19.5844,VALID,293,VALID,0.446832,
2000-12-13, 02:22:00,VALID,916.698,VALID,0,VALID,99.3619,VALID,0,VALID,19.5809,VALID,93,VALID,1.09034,
2000-12-13, 02:23:00,VALID,916.683,VALID,0,VALID,99.3644,VALID,0.0169808,VALID,19.5871,VALID,106,VALID,0.233686,
2000-12-13, 02:24:00,VALID,916.709,VALID,0,VALID,99.3619,VALID,0,VALID,19.5904,VALID,85,VALID,0.207031,
2000-12-13, 02:25:01,VALID,916.702,VALID,0,VALID,99.3543,VALID,-0.0169808,VALID,19.5844,VALID,7,VALID,0.485197,
2000-12-13, 02:26:00,VALID,916.701,VALID,0,VALID,99.3543,VALID,0.0169808,VALID,19.5866,VALID,288,VALID,0.00260417,
2000-12-13, 02:27:01,VALID,916.707,VALID,0,VALID,99.3517,VALID,0.0169808,VALID,19.574,VALID,282,VALID,0,
2000-12-13, 02:28:00,VALID,916.693,VALID,0,VALID,99.3505,VALID,0.0169808,VALID,19.5774,VALID,193,VALID,0.0890625,
2000-12-13, 02:29:01,VALID,916.681,VALID,0,VALID,99.3556,VALID,-0.0169808,VALID,19.5841,VALID,227,VALID,0.274465,
2000-12-13, 02:30:00,VALID,916.674,VALID,0,VALID,99.3416,VALID,0,VALID,19.5643,VALID,292,VALID,0.552837,
2000-12-13, 02:31:00,VALID,916.662,VALID,0,VALID,99.353,VALID,-0.0169808,VALID,19.5605,VALID,41,VALID,0.447461,
2000-12-13, 02:32:01,VALID,916.653,VALID,0,VALID,99.3492,VALID,0,VALID,19.5581,VALID,281,VALID,0.580128,
2000-12-13, 02:33:01,VALID,916.648,VALID,0,VALID,99.3466,VALID,0,VALID,19.5449,VALID,198,VALID,0.0185811,
2000-12-13, 02:34:01,VALID,916.653,VALID,0,VALID,99.3492,VALID,-0.0169808,VALID,19.5618,VALID,146,VALID,0.0540365,
2000-12-13, 02:35:00,VALID,916.642,VALID,0,VALID,99.3505,VALID,-0.0679233,VALID,19.5625,VALID,32,VALID,0.310096,
2000-12-13, 02:36:01,VALID,916.64,VALID,0,VALID,99.3454,VALID,-0.0849042,VALID,19.5561,VALID,292,VALID,0.00168919,
2000-12-13, 02:37:01,VALID,916.635,VALID,0,VALID,99.3492,VALID,-0.0679233,VALID,19.559,VALID,118,VALID,0.410657,
2000-12-13, 02:38:00,VALID,916.624,VALID,0,VALID,99.367,VALID,-0.0849042,VALID,19.5817,VALID,119,VALID,0.328697,
2000-12-13, 02:39:00,VALID,916.608,VALID,0,VALID,99.3644,VALID,-0.101885,VALID,19.6115,VALID,134,VALID,0.0487753,
2000-12-13, 02:40:01,VALID,916.608,VALID,0,VALID,99.3505,VALID,-0.0849042,VALID,19.6015,VALID,107,VALID,0.466211,
2000-12-13, 02:41:00,VALID,916.612,VALID,0,VALID,99.3683,VALID,-0.0509425,VALID,19.611,VALID,105,VALID,0,
2000-12-13, 02:42:00,VALID,916.609,VALID,0,VALID,99.3568,VALID,-0.101885,VALID,19.6015,VALID,57,VALID,0.267383,
2000-12-13, 02:43:00,VALID,916.625,VALID,0,VALID,99.3619,VALID,-0.101885,VALID,19.5819,VALID,333,VALID,0.0230263,
2000-12-13, 02:44:01,VALID,916.616,VALID,0,VALID,99.3543,VALID,-0.0679233,VALID,19.5822,VALID,245,VALID,0.10773,
2000-12-13, 02:45:00,VALID,916.622,VALID,0,VALID,99.367,VALID,-0.0849042,VALID,19.5916,VALID,353,VALID,0.108742,
2000-12-13, 02:46:00,VALID,916.63,VALID,0,VALID,99.3721,VALID,-0.0679233,VALID,19.601,VALID,37,VALID,0.473633,
2000-12-13, 02:47:00,VALID,916.625,VALID,0,VALID,99.3695,VALID,-0.0679233,VALID,19.6304,VALID,69,VALID,0.128472,
2000-12-13, 02:48:00,VALID,916.624,VALID,0,VALID,99.3619,VALID,-0.101885,VALID,19.5849,VALID,135,VALID,0.058277,
2000-12-13, 02:49:00,VALID,916.633,VALID,0,VALID,99.3556,VALID,-0.101885,VALID,19.5884,VALID,132,VALID,0.24301,
2000-12-13, 02:50:01,VALID,916.624,VALID,0,VALID,99.3619,VALID,-0.101885,VALID,19.5918,VALID,104,VALID,0.428504,
2000-12-13, 02:51:00,VALID,916.605,VALID,0,VALID,99.3708,VALID,-0.101885,VALID,19.5914,VALID,102,VALID,0.197985,
2000-12-13, 02:52:01,VALID,916.614,VALID,0,VALID,99.3581,VALID,-0.101885,VALID,19.5854,VALID,303,VALID,0.553711,
2000-12-13, 02:53:00,VALID,916.617,VALID,0,VALID,99.3441,VALID,-0.0849042,VALID,19.5531,VALID,288,VALID,0.367599,
2000-12-13, 02:54:01,VALID,916.605,VALID,0,VALID,99.3594,VALID,-0.101885,VALID,19.569,VALID,349,VALID,0.270148,
2000-12-13, 02:55:01,VALID,916.608,VALID,0,VALID,99.3543,VALID,-0.101885,VALID,19.5792,VALID,62,VALID,0.289885,
2000-12-13, 02:56:00,VALID,916.605,VALID,0,VALID,99.3594,VALID,-0.0849042,VALID,19.5889,VALID,97,VALID,0.0717147,
2000-12-13, 02:57:01,VALID,916.599,VALID,0,VALID,99.353,VALID,-0.101885,VALID,19.5886,VALID,97,VALID,0.124578,
2000-12-13, 02:58:00,VALID,916.603,VALID,0,VALID,99.367,VALID,-0.0849042,VALID,19.5923,VALID,97,VALID,0.020148,
2000-12-13, 02:59:00,VALID,916.601,VALID,0,VALID,99.3581,VALID,-0.101885,VALID,19.5953,VALID,107,VALID,0,
2000-12-13, 03:00:00,VALID,916.593,VALID,0,VALID,99.3619,VALID,-0.101885,VALID,19.5986,VALID,154,VALID,0.332248,
2000-12-13, 03:01:01,VALID,916.568,VALID,0.2,VALID,99.3772,VALID,-0.0849042,VALID,19.6013,VALID,307,VALID,0.224451,
2000-12-13, 03:02:00,VALID,916.578,VALID,0,VALID,99.3734,VALID,-0.101885,VALID,19.6055,VALID,71,VALID,0.0534539,
2000-12-13, 03:03:00,VALID,916.56,VALID,0,VALID,99.3861,VALID,-0.0849042,VALID,19.6174,VALID,115,VALID,0.000892857,
2000-12-13, 03:04:00,VALID,916.568,VALID,0,VALID,99.3835,VALID,-0.101885,VALID,19.6304,VALID,102,VALID,0,
2000-12-13, 03:05:01,VALID,916.569,VALID,0,VALID,99.3784,VALID,-0.0849042,VALID,19.6237,VALID,173,VALID,0,
2000-12-13, 03:06:00,VALID,916.568,VALID,0,VALID,99.3823,VALID,-0.118866,VALID,19.6306,VALID,178,VALID,0,
2000-12-13, 03:07:00,VALID,916.575,VALID,0,VALID,99.381,VALID,-0.0679233,VALID,19.6338,VALID,143,VALID,0,
2000-12-13, 03:08:00,VALID,916.578,VALID,0,VALID,99.3772,VALID,-0.101885,VALID,19.6371,VALID,77,VALID,0,
2000-12-13, 03:09:00,VALID,916.582,VALID,0,VALID,99.3873,VALID,-0.0339617,VALID,19.6331,VALID,87,VALID,0,
2000-12-13, 03:10:00,VALID,916.581,VALID,0,VALID,99.3784,VALID,-0.0849042,VALID,19.6373,VALID,88,VALID,0,
2000-12-13, 03:11:00,VALID,916.575,VALID,0,VALID,99.3899,VALID,-0.0849042,VALID,19.6204,VALID,74,VALID,0,
2000-12-13, 03:12:00,VALID,916.558,VALID,0,VALID,99.3797,VALID,-0.101885,VALID,19.6177,VALID,73,VALID,0,
2000-12-13, 03:13:00,VALID,916.556,VALID,0,VALID,99.3835,VALID,-0.0679233,VALID,19.6239,VALID,158,VALID,0,
2000-12-13, 03:14:00,VALID,916.545,VALID,0,VALID,99.3759,VALID,-0.101885,VALID,19.6244,VALID,194,VALID,0,
2000-12-13, 03:15:01,VALID,916.535,VALID,0,VALID,99.381,VALID,-0.101885,VALID,19.6142,VALID,223,VALID,0,
2000-12-13, 03:16:00,VALID,916.526,VALID,0,VALID,99.3899,VALID,-0.0849042,VALID,19.6401,VALID,191,VALID,0,
2000-12-13, 03:17:00,VALID,916.509,VALID,0,VALID,99.4001,VALID,-0.101885,VALID,19.6759,VALID,165,VALID,0,
2000-12-13, 03:18:00,VALID,916.496,VALID,0,VALID,99.395,VALID,-0.0849042,VALID,19.6594,VALID,232,VALID,0,
2000-12-13, 03:19:01,VALID,916.478,VALID,0,VALID,99.381,VALID,-0.0339617,VALID,19.6393,VALID,202,VALID,0,
2000-12-13, 03:20:01,VALID,916.479,VALID,0,VALID,99.381,VALID,0.0509425,VALID,19.6383,VALID,154,VALID,0,
2000-12-13, 03:21:00,VALID,916.457,VALID,0,VALID,99.3861,VALID,0.0339617,VALID,19.6319,VALID,186,VALID,0,
2000-12-13, 03:22:00,VALID,916.446,VALID,0,VALID,99.3835,VALID,0.0169808,VALID,19.645,VALID,50,VALID,0.255664,
2000-12-13, 03:23:00,VALID,916.424,VALID,0,VALID,99.3924,VALID,0.0679233,VALID,19.6286,VALID,339,VALID,0.477539,
2000-12-13, 03:24:01,VALID,916.414,VALID,0,VALID,99.3886,VALID,0.0169808,VALID,19.6324,VALID,287,VALID,0.140024,
2000-12-13, 03:25:00,VALID,916.383,VALID,0,VALID,99.3823,VALID,0.0339617,VALID,19.6381,VALID,350,VALID,0.202714,
2000-12-13, 03:26:00,VALID,916.378,VALID,0,VALID,99.3886,VALID,0.0339617,VALID,19.6416,VALID,102,VALID,0.134615,
2000-12-13, 03:27:00,VALID,916.377,VALID,0,VALID,99.3721,VALID,0.0509425,VALID,19.6418,VALID,120,VALID,0,
2000-12-13, 03:28:01,VALID,916.362,VALID,0,VALID,99.3823,VALID,0,VALID,19.6319,VALID,120,VALID,0.13598,
2000-12-13, 03:29:00,VALID,916.345,VALID,0,VALID,99.395,VALID,0.0169808,VALID,19.6351,VALID,119,VALID,0.0146234,
2000-12-13, 03:30:01,VALID,916.329,VALID,0,VALID,99.395,VALID,0.0169808,VALID,19.6582,VALID,119,VALID,0.0221354,
2000-12-13, 03:31:01,VALID,916.323,VALID,0,VALID,99.3975,VALID,0.0339617,VALID,19.6644,VALID,89,VALID,0.244141,
2000-12-13, 03:32:00,VALID,916.317,VALID,0,VALID,99.3721,VALID,0,VALID,19.6286,VALID,113,VALID,0.635016,
2000-12-13, 03:33:00,VALID,916.292,VALID,0,VALID,99.3848,VALID,0,VALID,19.6416,VALID,100,VALID,0.126056,
2000-12-13, 03:34:00,VALID,916.302,VALID,0,VALID,99.395,VALID,0.0339617,VALID,19.6614,VALID,135,VALID,0.117388,
2000-12-13, 03:35:01,VALID,916.293,VALID,0,VALID,99.3861,VALID,0.0169808,VALID,19.6448,VALID,360,VALID,0.0682566,
2000-12-13, 03:36:01,VALID,916.287,VALID,0,VALID,99.3924,VALID,0,VALID,19.6353,VALID,252,VALID,0.167302,
2000-12-13, 03:37:00,VALID,916.274,VALID,0,VALID,99.381,VALID,0,VALID,19.6257,VALID,290,VALID,0.0508814,